Location: Gensac
(43.2177°N, 1.1313°E)
Time: 09:06:10
(UTC+00:00)

IGS 5A - Pass Details

Date: 16 March 2026
Orbit: 551 x 554 km, 97.4° (Epoch: 8 January)

Event Time Altitude Azimuth Distance (km) Brightness Sun altitude
Rises 05:25:17 0° 16° (NNE) 2,735 7.2 -8.3°
Reaches altitude 10° 05:27:27 10° 20° (NNE) 1,836 6.3 -7.9°
Maximum altitude 05:31:23 58° 100° (E) 644 4.1 -7.2°
Drops below altitude 10° 05:35:16 10° 180° (S) 1,821 5.9 -6.5°
Sets 05:37:24 0° 185° (S) 2,710 6.8 -6.1°
